Regional Weather Roundup
Issued by NWS

Home | Current Version | Previous Version | Graphics & Text | Print | Product List | Glossary On
Versions: 1 2 3 4 5 6 7 8 9 10 11 12 13 14 15 16 17 18 19 20 21 22 23 24 25 26 27 28 29 30 31 32 33 34 35 36 37 38 39 40 41 42 43 44 45 46 47 48 49 50
000
ASUS43 KOAX 280002
RWRNE

WEATHER ROUNDUP FOR NEBRASKA
NATIONAL WEATHER SERVICE OMAHA NE
600 PM CST FRI FEB 27 2015

NOTES: SATELLITE DATA IS BEING USED TO AUGMENT CLOUD COVER ABOVE
       12000 FEET.
       "FAIR" INDICATES FEW OR NO CLOUDS BELOW 12,000 FEET WITH NO
       SIGNIFICANT WEATHER AND/OR OBSTRUCTIONS TO VISIBILITY.

  * THESE STATIONS DO NOT REPORT WEATHER SUCH AS RAIN...SNOW OR FOG.

NEZ001>004-019>022-054>056-280100-
NEBRASKA PANHANDLE

CITY           SKY/WX    TMP DP  RH WIND       PRES   REMARKS
SCOTTSBLUFF    MOCLDY    21   7  54 S22G29    29.99F WCI   5
6HR MIN TEMP:  20; 6HR MAX TEMP:  24; 6HR PCP: TRACE;

ALLIANCE       CLOUDY    19   8  62 S20G29    30.02F WCI   3
6HR MIN TEMP:  17; 6HR MAX TEMP:  20; 6HR PCP: TRACE;

CHADRON        MOCLDY    23   9  55 S22       30.03F WCI   8
6HR MIN TEMP:  20; 6HR MAX TEMP:  26;

KIMBALL        LGT SNOW  15  10  78 S17G23    29.94S WCI  -1
SIDNEY         CLOUDY    16   7  67 S21       30.03F WCI  -1
6HR MIN TEMP:  16; 6HR MAX TEMP:  18; 6HR PCP: TRACE;

$$

NEZ057>060-069>072-079>082-280100-
SOUTHWEST NEBRASKA

CITY           SKY/WX    TMP DP  RH WIND       PRES   REMARKS
NORTH PLATTE   CLOUDY    20   3  48 S17       30.22F WCI   5
6HR MIN TEMP:  17; 6HR MAX TEMP:  25;

IMPERIAL         N/A     18   6  59 S17G28    30.17S WCI   3
6HR MIN TEMP:  17; 6HR MAX TEMP:  22; 6HR PCP: TRACE;

LEXINGTON      CLEAR     21  -3  35 S15       30.29S WCI   7
MCCOOK         CLOUDY    22   6  50 S15       30.27S WCI   9
6HR MIN TEMP:  19; 6HR MAX TEMP:  26;

$$

NEZ005>010-023>029-035>040-094-280100-
NORTH CENTRAL NEBRASKA

CITY           SKY/WX    TMP DP  RH WIND       PRES   REMARKS
VALENTINE      CLEAR     25   2  37 S14       30.18S WCI  13
6HR MIN TEMP:  18; 6HR MAX TEMP:  27;

AINSWORTH      CLEAR     23  -2  33 S12       30.21F WCI  11
BROKEN BOW     CLEAR     22  -3  33 S13       30.26F WCI  10
6HR MIN TEMP:  17; 6HR MAX TEMP:  25;

ORD            CLEAR     21  -7  28 S13       30.32S WCI   9
6HR MIN TEMP:  16; 6HR MAX TEMP:  23;

$$

NEZ041-046>049-061>064-073>077-083>087-280100-
SOUTH CENTRAL NEBRASKA

CITY           SKY/WX    TMP DP  RH WIND       PRES   REMARKS
GRAND ISLAND   CLEAR     20  -2  38 S9        30.39S WCI   9
6HR MIN TEMP:  15; 6HR MAX TEMP:  22;

AURORA         PTCLDY    20  -4  34 S7        30.39S WCI  11
HASTINGS       PTCLDY    20  -4  34 S10       30.37S WCI   9
6HR MIN TEMP:  16; 6HR MAX TEMP:  23;

HEBRON         CLEAR     19  -1  41 S6        30.46S WCI  10
HOLDREGE       CLEAR     19  -6  32 S14       30.32S WCI   6
KEARNEY *      CLEAR     19  -6  32 S14       30.34S WCI   6
$$

NEZ011>018-030>034-042>045-280100-
NORTHEAST NEBRASKA

CITY           SKY/WX    TMP DP  RH WIND       PRES   REMARKS
NORFOLK        CLEAR     19   1  45 S12       30.40S WCI   7
6HR MIN TEMP:  14; 6HR MAX TEMP:  22;

ALBION         CLEAR     21  -5  31 S12       30.38R WCI   9
BLAIR          CLEAR     18   4  54 SE5       30.47F WCI  11
COLUMBUS *     CLEAR     19  -4  35 S8        30.45S WCI   9
FREMONT        CLEAR     19   2  47 S8        30.48S WCI   9
TEKAMAH        CLEAR     17   5  59 SE8       30.51S WCI   7
6HR MIN TEMP:  11; 6HR MAX TEMP:  18;

WAYNE          CLEAR     19   4  53 S9        30.44S WCI   7
$$

NEZ050>053-065>068-078-088>093-280100-
SOUTHEAST NEBRASKA

CITY           SKY/WX    TMP DP  RH WIND       PRES   REMARKS
LINCOLN        CLEAR     19   0  43 S9        30.49F WCI   8
6HR MIN TEMP:  13; 6HR MAX TEMP:  21;

OMAHA EPPLEY   PTCLDY    18   4  54 E10       30.52S WCI   6
6HR MIN TEMP:  10; 6HR MAX TEMP:  19;

BEATRICE       PTCLDY    19  -1  43 S6        30.48S WCI  10
FALLS CITY     CLEAR     17  -2  43 SE5       30.53S WCI  10
6HR MIN TEMP:  14; 6HR MAX TEMP:  22;

NEBRASKA CITY  CLEAR     17  -6  36 S7        30.51S WCI   7
$$

NEZ044-045-051>053-067-280100-
OMAHA AREA

CITY           SKY/WX    TMP DP  RH WIND       PRES   REMARKS
OMAHA EPPLEY   PTCLDY    18   4  54 E10       30.52S WCI   6
6HR MIN TEMP:  10; 6HR MAX TEMP:  19;

BLAIR          CLEAR     18   4  54 SE5       30.47F WCI  11
FREMONT        CLEAR     19   2  47 S8        30.48S WCI   9
MILLARD        CLEAR     19   2  47 S6        30.51R WCI  11
OFFUTT AFB     CLEAR     17   3  54 E8        30.51S WCI   6
WAHOO          FAIR      19   1  47 SE8       30.48F WCI   8
$$



USA.gov is the U.S. government's official web portal to all federal, state and local government web resources and services.